FW7345 Weather Reports


Display with metric or nautical units.
time (UTC)temp
F
wind
direction
speed
MPH
gust
MPH
rain 1hr
in
rain 24hr
in
rain mn
in
humidity
%
barometer
mb
20260504081607 55 0 0.0 0.0 0.00 0.00 0.00 93 1016.5
20260504060108 57 0 0.0 0.0 0.00 0.00 0.00 89 1018.2
20260504050111 58 0 0.0 1.0 0.00 0.00 0.00 89 1018.8
20260504044551 57 0 0.0 0.0 0.00 0.00 0.00 85 1018.7
20260504043101 58 0 0.0 0.0 0.00 0.00 0.00 83 1018.9
20260504041554 60 0 0.0 0.0 0.00 0.00 0.00 82 1019.1
20260504040058 61 0 0.0 0.0 0.00 0.00 0.00 80 1018.9
20260504034551 62 0 0.0 0.0 0.00 0.00 0.00 77 1018.8
20260504033056 64 0 0.0 2.0 0.00 0.00 0.00 75 1018.9
20260504031557 65 0 1.0 4.0 0.00 0.00 0.00 73 1018.8
20260504030054 65 196 0.0 6.0 0.00 0.00 0.00 72 1018.6
20260504024553 65 229 1.0 4.0 0.00 0.00 0.00 71 1018.6
20260504023048 65 0 0.0 2.0 0.00 0.00 0.00 72 1018.4
20260504021551 66 0 0.0 3.0 0.00 0.00 0.00 70 1018.2
20260504020052 67 0 0.0 3.0 0.00 0.00 0.00 69 1018.2
20260504014557 67 209 0.0 2.0 0.00 0.00 0.00 68 1018.0
20260504013105 68 0 0.0 2.0 0.00 0.00 0.00 66 1018.0
20260504011554 69 0 0.0 4.0 0.00 0.00 0.00 64 1017.9
20260504010111 71 0 0.0 2.0 0.00 0.00 0.00 60 1017.8
20260504004552 72 144 0.0 3.0 0.00 0.00 0.00 58 1017.8
20260504003053 73 238 1.0 4.0 0.00 0.00 0.00 57 1018.0
20260504001602 74 245 1.0 7.0 0.00 0.00 0.00 55 1017.9
20260504000058 75 252 1.0 6.0 0.00 0.00 0.00 53 1017.9
20260503234550 77 281 3.0 7.0 0.00 0.00 0.00 50 1017.8
20260503233101 79 214 2.0 7.0 0.00 0.00 0.00 44 1018.0
20260503231553 80 253 1.0 3.0 0.00 0.00 0.00 44 1018.1
20260503230054 81 230 0.0 4.0 0.00 0.00 0.00 47 1018.2
20260503224547 81 0 1.0 5.0 0.00 0.00 0.00 41 1018.3
20260503223051 81 304 2.0 4.0 0.00 0.00 0.00 43 1018.6
20260503221558 80 0 2.0 6.0 0.00 0.00 0.00 42 1018.9
20260503220103 80 213 1.0 5.0 0.00 0.00 0.00 41 1019.1
20260503214555 81 160 2.0 5.0 0.00 0.00 0.00 43 1019.0
20260503213051 82 248 0.0 5.0 0.00 0.00 0.00 39 1019.2
20260503211547 82 174 0.0 7.0 0.00 0.00 0.00 39 1019.6
20260503210055 82 0 1.0 5.0 0.00 0.00 0.00 42 1019.6
20260503204601 80 139 0.0 6.0 0.00 0.00 0.00 42 1019.9
20260503203056 80 262 1.0 7.0 0.00 0.00 0.00 45 1020.2
20260503201549 80 178 1.0 7.0 0.00 0.00 0.00 46 1020.3
20260503200050 81 223 1.0 7.0 0.00 0.00 0.00 41 1020.7
20260503194607 81 0 0.0 6.0 0.00 0.00 0.00 45 1020.8
20260503193050 80 0 0.0 7.0 0.00 0.00 0.00 41 1021.1
20260503191548 80 140 1.0 7.0 0.00 0.00 0.00 44 1021.3
20260503190058 80 249 0.0 6.0 0.00 0.00 0.00 42 1021.6
20260503184554 81 230 0.0 6.0 0.00 0.00 0.00 43 1021.9
20260503183054 80 234 1.0 4.0 0.00 0.00 0.00 46 1022.1
20260503181550 79 0 0.0 6.0 0.00 0.00 0.00 47 1022.3
20260503180105 79 231 3.0 5.0 0.00 0.00 0.00 48 1022.5
20260503174549 79 0 1.0 4.0 0.00 0.00 0.00 47 1022.9
20260503173145 77 0 0.0 5.0 0.00 0.00 0.00 47 1023.1
20260503171554 78 242 1.0 4.0 0.00 0.00 0.00 47 1023.3